Project,Study,Ord_Occ,Event_Num,Cast_ID,Date_Time_UTC,Date_Time_PST,Lat_Dec,Lon_Dec,Sta_ID,Line,Sta,Depth,Pressure,PrQ,Temp1,Temp1Q,Temp2,Temp2Q,TempAve,Salt1,Salt1Q,Salt1_Corr,Salt2,Salt2Q,Salt2_Corr,SaltAve_Corr,Ox1,Ox1Q,Ox1_CruiseCorr,Ox1_StaCorr,Ox2,Ox2Q,Ox2_CruiseCorr,Ox2_StaCorr,OxAve_StaCorr,Ox1uM,Ox1uM_CruiseCorr,Ox1uM_StaCorr,Ox2uM,Ox2uM_CruiseCorr,Ox2uM_StaCorr,OxAveuM_StaCorr,FluorV,FluorQ,EstChl_CruiseCorr,EstChl_StaCorr,ISUSV,ISUSQ,EstNO3_CruiseCorr,EstNO3_StaCorr,SigThetaTS1,SigThetaTS1Q,SigThetaTS2,SigThetaTS2Q,BAT,XMiss,TransQ,pH,pHQ,SPAR,SPARQ,PAR,PARQ,PoT1,PoT2,DynHt,SVA,OxSat1,OxSat2,BTL_Depth,BTL_Temp,SaltB,OxB,OxBuM,Chl-a,Phaeo,NO3,NO2,NH4,PO4,SIL
CalCOFI,2007SR,028,29,2007_028d,18-Jul-2020 22:52:23,18-Jul-2020 14:52:23,33.25220,-118.24910,090.0 035.0,090.0,035.0,2.000,2.014,,21.8367,,21.8402,,21.8385,33.6887,,33.6889,33.6899,,33.6915,33.6902,5.4074,,5.6325,5.7415,3.8983,,5.3652,3.8028,4.7722,236.005,245.8775,200.5755,170.140,411.6897,148.4903,174.5329,0.0469,,0.1268,0.0951,-99.0,,-99.0,,23.2672,,23.2671,,0.7751,82.3851,,8.184,,2.1801E+03,,9.1015E+01,,21.8363,21.8398,0.0031,,107.194,77.283,2,21.802,33.6947,5.651,246.65,0.324,0.083,0.0,0.00,0.00,0.07,0.51
CalCOFI,2007SR,028,29,2007_028d,18-Jul-2020 22:52:28,18-Jul-2020 14:52:28,33.25220,-118.24910,090.0 035.0,090.0,035.0,3.000,3.021,,21.8328,,21.8280,,21.8304,33.6886,,33.6888,33.6894,,33.6910,33.6899,5.4080,,5.6331,5.7421,3.9000,,5.3693,3.8068,4.7745,236.028,245.9015,200.5924,170.215,411.7460,148.6395,174.6160,0.0482,,0.1421,0.0994,-99.0,,-99.0,,23.2683,,23.2702,,0.7735,82.4183,,8.184,,2.1791E+03,,7.4945E+01,,21.8322,21.8274,0.0092,,107.197,77.300,,,,,,,,,,,,
CalCOFI,2007SR,028,29,2007_028d,18-Jul-2020 22:52:31,18-Jul-2020 14:52:31,33.25220,-118.24910,090.0 035.0,090.0,035.0,4.000,4.029,,21.8277,,21.8262,,21.8270,33.6886,,33.6888,33.6897,,33.6913,33.6901,5.4106,,5.6358,5.7450,3.9008,,5.3712,3.8087,4.7769,236.144,246.0226,200.6777,170.250,412.0297,148.7091,174.6934,0.0482,,0.1421,0.0994,-99.0,,-99.0,,23.2697,,23.2710,,0.7711,82.4676,,8.184,,2.1804E+03,,6.2421E+01,,21.8269,21.8254,0.0140,,107.240,77.314,,,,,,,,,,,,
CalCOFI,2007SR,028,29,2007_028d,18-Jul-2020 22:52:34,18-Jul-2020 14:52:34,33.25220,-118.24910,090.0 035.0,090.0,035.0,5.000,5.036,,21.8318,,21.8316,,21.8317,33.6887,,33.6889,33.6896,,33.6912,33.6901,5.4264,,5.6523,5.7622,3.9052,,5.3817,3.8191,4.7907,236.831,246.7398,201.1829,170.439,413.7100,149.0851,175.1340,0.0485,,0.1456,0.1003,-99.0,,-99.0,,23.2687,,23.2695,,0.7735,82.4164,,8.184,,2.1804E+03,,5.2485E+01,,21.8309,21.8306,0.0186,,107.560,77.407,,,,,,,,,,,,
CalCOFI,2007SR,028,29,2007_028d,18-Jul-2020 22:52:35,18-Jul-2020 14:52:35,33.25222,-118.24910,090.0 035.0,090.0,035.0,6.000,6.043,,21.7955,,21.7914,,21.7935,33.6876,,33.6878,33.6882,,33.6898,33.6888,5.4243,,5.6502,5.7599,3.9079,,5.3881,3.8254,4.7927,236.738,246.6427,201.1145,170.555,413.4825,149.3159,175.2152,0.0517,,0.1832,0.1114,-99.0,,-99.0,,23.2780,,23.2796,,0.7769,82.3456,,8.184,,2.1804E+03,,3.8328E+01,,21.7943,21.7903,0.0232,,107.448,77.404,,,,,,,,,,,,
CalCOFI,2007SR,028,29,2007_028d,18-Jul-2020 22:52:37,18-Jul-2020 14:52:37,33.25222,-118.24910,090.0 035.0,090.0,035.0,7.000,7.050,,21.7974,,21.7925,,21.7950,33.6885,,33.6887,33.6897,,33.6913,33.6900,5.4201,,5.6458,5.7553,3.9082,,5.3888,3.8261,4.7907,236.556,246.4527,200.9807,170.569,413.0374,149.3437,175.1622,0.0535,,0.2043,0.1180,-99.0,,-99.0,,23.2782,,23.2805,,0.7764,82.3565,,8.185,,2.1804E+03,,3.6049E+01,,21.7960,21.7912,0.0278,,107.370,77.413,,,,,,,,,,,,
CalCOFI,2007SR,028,29,2007_028d,18-Jul-2020 22:52:39,18-Jul-2020 14:52:39,33.25222,-118.24910,090.0 035.0,090.0,035.0,8.000,8.057,,21.8183,,21.8185,,21.8184,33.6888,,33.6890,33.6899,,33.6915,33.6903,5.4195,,5.6451,5.7547,3.9068,,5.3855,3.8228,4.7888,236.529,246.4245,200.9608,170.511,412.9714,149.2283,175.0946,0.0553,,0.2255,0.1249,-99.0,,-99.0,,23.2727,,23.2735,,0.7770,82.3455,,8.184,,2.1804E+03,,3.2767E+01,,21.8168,21.8170,0.0325,,107.397,77.422,,,,,,,,,,,,
CalCOFI,2007SR,028,29,2007_028d,18-Jul-2020 22:52:41,18-Jul-2020 14:52:41,33.25222,-118.24910,090.0 035.0,090.0,035.0,9.000,9.064,,21.8225,,21.8174,,21.8200,33.6889,,33.6891,33.6891,,33.6907,33.6899,5.4219,,5.6476,5.7573,3.9098,,5.3927,3.8299,4.7936,236.633,246.5331,201.0373,170.638,413.2257,149.4810,175.2592,0.0544,,0.2149,0.1214,-99.0,,-99.0,,23.2717,,23.2732,,0.7724,82.4408,,8.184,,2.1804E+03,,2.9436E+01,,21.8208,21.8157,0.0371,,107.453,77.478,,,,,,,,,,,,
CalCOFI,2007SR,028,29,2007_028d,18-Jul-2020 22:52:43,18-Jul-2020 14:52:43,33.25222,-118.24910,090.0 035.0,090.0,035.0,10.000,10.071,,21.8015,,21.7964,,21.7990,33.6885,,33.6887,33.6891,,33.6907,33.6897,5.4354,,5.6617,5.7721,3.9131,,5.4005,3.8377,4.8049,237.225,247.1511,201.4727,170.784,414.6737,149.7714,175.6221,0.0558,,0.2314,0.1269,1.6197E-09,,0.0000,,23.2772,,23.2791,,0.7741,82.4043,,8.184,,2.1795E+03,,2.4821E+01,,21.7995,21.7944,0.0417,,107.681,77.516,,,,,,,,,,,,
CalCOFI,2007SR,028,29,2007_028d,18-Jul-2020 22:52:45,18-Jul-2020 14:52:45,33.25222,-118.24910,090.0 035.0,090.0,035.0,11.000,11.079,,21.7505,,21.7378,,21.7442,33.6861,,33.6863,33.6858,,33.6874,33.6869,5.4356,,5.6620,5.7723,3.9195,,5.4158,3.8527,4.8125,237.230,247.1563,201.4764,171.060,414.6859,150.3205,175.8985,0.0609,,0.2913,0.1480,0.0021,,0.0000,,23.2896,,23.2928,,0.7788,82.3087,,8.187,,2.1794E+03,,1.8846E+01,,21.7483,21.7356,0.0464,,107.585,77.559,11,20.840,33.6496,, ,,,,,,,
CalCOFI,2007SR,028,29,2007_028d,18-Jul-2020 22:52:47,18-Jul-2020 14:52:47,33.25222,-118.24910,090.0 035.0,090.0,035.0,12.000,12.086,,21.6718,,21.6558,,21.6638,33.6832,,33.6834,33.6824,,33.6840,33.6837,5.4253,,5.6512,5.7610,3.9295,,5.4397,3.8763,4.8187,236.776,246.6824,201.1425,171.494,413.5755,151.1839,176.1632,0.0706,,0.4053,0.1941,0.0161,,0.0000,,23.3091,,23.3129,,0.7842,82.1975,,8.188,,2.1799E+03,,1.7799E+01,,21.6695,21.6535,0.0510,,107.229,77.642,,,,,,,,,,,,
CalCOFI,2007SR,028,29,2007_028d,18-Jul-2020 22:52:50,18-Jul-2020 14:52:50,33.25222,-118.24910,090.0 035.0,090.0,035.0,13.000,13.093,,21.4975,,21.4866,,21.4921,33.6736,,33.6738,33.6711,,33.6727,33.6733,5.4261,,5.6520,5.7619,3.9480,,5.4839,3.9198,4.8409,236.798,246.7053,201.1587,172.294,413.6293,152.7753,176.9670,0.0758,,0.4665,0.2221,0.0488,,0.0000,,23.3498,,23.3509,,0.7902,82.0734,,8.183,,2.1794E+03,,1.6087E+01,,21.4949,21.4840,0.0555,,106.902,77.765,,,,,,,,,,,,
CalCOFI,2007SR,028,29,2007_028d,18-Jul-2020 22:52:52,18-Jul-2020 14:52:52,33.25222,-118.24910,090.0 035.0,090.0,035.0,14.000,14.100,,21.1997,,21.1755,,21.1876,33.6639,,33.6641,33.6635,,33.6651,33.6646,5.4487,,5.6756,5.7866,3.9727,,5.5428,3.9779,4.8823,237.772,247.7221,201.8750,173.361,416.0116,154.8980,178.3865,0.0791,,0.5053,0.2409,0.0862,,0.0000,,23.4237,,23.4300,,0.7909,82.0609,,8.183,,2.1796E+03,,1.3204E+01,,21.1970,21.1728,0.0601,,106.770,77.813,,,,,,,,,,,,
CalCOFI,2007SR,028,29,2007_028d,18-Jul-2020 22:52:54,18-Jul-2020 14:52:54,33.25222,-118.24910,090.0 035.0,090.0,035.0,15.000,15.107,,21.0412,,21.0283,,21.0348,33.6586,,33.6588,33.6595,,33.6611,33.6600,5.4817,,5.7101,5.8227,3.9846,,5.5712,4.0059,4.9143,239.202,249.2149,202.9267,173.872,419.5091,155.9145,179.4206,0.0909,,0.6442,0.3158,0.1202,,0.0000,,23.4627,,23.4669,,0.7942,81.9916,,8.184,,2.1799E+03,,1.2710E+01,,21.0383,21.0254,0.0645,,107.105,77.836,,,,,,,,,,,,
CalCOFI,2007SR,028,29,2007_028d,18-Jul-2020 22:52:55,18-Jul-2020 14:52:55,33.25222,-118.24910,090.0 035.0,090.0,035.0,16.000,16.115,,20.8998,,20.9059,,20.9029,33.6552,,33.6554,33.6583,,33.6599,33.6577,5.4727,,5.7007,5.8129,3.9944,,5.5946,4.0290,4.9210,238.797,248.7921,202.6288,174.294,418.5186,156.7540,179.6914,0.0956,,0.6995,0.3488,0.1449,,0.0000,,23.4983,,23.4990,,0.7974,81.9265,,8.182,,2.1804E+03,,1.0968E+01,,20.8968,20.9028,0.0690,,106.653,77.854,,,,,,,,,,,,
CalCOFI,2007SR,028,29,2007_028d,18-Jul-2020 22:52:57,18-Jul-2020 14:52:57,33.25222,-118.24910,090.0 035.0,090.0,035.0,17.000,17.122,,20.8988,,20.9133,,20.9061,33.6604,,33.6606,33.6578,,33.6594,33.6600,5.4331,,5.6593,5.7696,3.9971,,5.6011,4.0353,4.9025,237.070,246.9893,201.3587,174.412,414.2946,156.9888,179.1738,0.0999,,0.7502,0.3806,0.1623,,0.0000,,23.5026,,23.4967,,0.7945,81.9866,,8.178,,2.1800E+03,,9.3069E+00,,20.8955,20.9100,0.0734,,105.883,77.917,,,,,,,,,,,,
CalCOFI,2007SR,028,29,2007_028d,18-Jul-2020 22:53:00,18-Jul-2020 14:53:00,33.25222,-118.24910,090.0 035.0,090.0,035.0,18.000,18.129,,20.7578,,20.7854,,20.7716,33.6524,,33.6526,33.6612,,33.6628,33.6577,5.4752,,5.7033,5.8156,4.0304,,5.6806,4.1137,4.9647,238.898,248.8975,202.7031,175.861,418.7656,159.8713,181.2872,0.1650,,1.5182,1.0483,0.1623,,0.0000,,23.5344,,23.5337,,0.8069,81.7316,,8.178,,2.1802E+03,,8.3629E+00,,20.7544,20.7820,0.0778,,106.426,78.387,,,,,,,,,,,,
CalCOFI,2007SR,028,29,2007_028d,18-Jul-2020 22:53:02,18-Jul-2020 14:53:02,33.25222,-118.24910,090.0 035.0,090.0,035.0,19.000,19.136,,20.1117,,20.0299,,20.0708,33.6112,,33.6114,33.5982,,33.5998,33.6056,5.5224,,5.7527,5.8673,4.0916,,5.8267,4.2577,5.0625,240.927,251.0156,204.1953,178.504,423.7282,165.1292,184.6623,0.1736,,1.6198,1.1627,0.1473,,0.0000,,23.6739,,23.6851,,0.8377,81.1054,,8.177,,2.1802E+03,,7.3338E+00,,20.1082,20.0264,0.0821,,106.058,78.452,,,,,,,,,,,,
CalCOFI,2007SR,028,29,2007_028d,18-Jul-2020 22:53:03,18-Jul-2020 14:53:03,33.25222,-118.24910,090.0 035.0,090.0,035.0,20.000,20.143,,19.4795,,19.4152,,19.4474,33.6067,,33.6069,33.6044,,33.6060,33.6065,5.5779,,5.8106,5.9280,4.1552,,5.9785,4.4074,5.1677,243.307,253.5001,205.9457,181.248,429.5494,170.5880,188.2669,0.1592,,1.4497,0.9746,0.1222,,0.0000,,23.8352,,23.8499,,0.8343,81.1735,,8.176,,2.1796E+03,,6.3258E+00,,19.4759,19.4116,0.0863,,105.881,78.780,,,,,,,,,,,,
CalCOFI,2007SR,028,29,2007_028d,18-Jul-2020 22:53:06,18-Jul-2020 14:53:06,33.25222,-118.24910,090.0 035.0,090.0,035.0,21.000,21.151,,18.6821,,18.6250,,18.6536,33.5807,,33.5809,33.5745,,33.5761,33.5785,5.5779,,5.8106,5.9280,4.2438,,6.1900,4.6159,5.2720,243.265,253.4562,205.9148,185.079,429.4467,178.2092,192.0620,0.1526,,1.3717,0.8942,0.0827,,0.0000,,24.0171,,24.0267,,0.8275,81.3133,,8.175,,2.1804E+03,,5.4170E+00,,18.6784,18.6213,0.0903,,104.300,79.264,21,16.533,33.5756,6.091,265.89,0.994,0.237,0.0,0.029,0.26,0.20,1.08
CalCOFI,2007SR,028,29,2007_028d,18-Jul-2020 22:53:08,18-Jul-2020 14:53:08,33.25222,-118.24910,090.0 035.0,090.0,035.0,22.000,22.158,,17.7160,,17.5527,,17.6344,33.5480,,33.5482,33.5401,,33.5417,33.5450,5.7124,,5.9512,6.0752,4.3356,,6.4092,4.8319,5.4536,249.081,259.5276,210.1921,189.041,443.6718,186.0910,198.1416,0.1497,,1.3375,0.8600,0.0409,,0.0000,,24.2296,,24.2627,,0.8072,81.7259,,8.173,,2.1804E+03,,4.9822E+00,,17.7123,17.5490,0.0941,,104.860,79.334,,,,,,,,,,,,
CalCOFI,2007SR,028,29,2007_028d,18-Jul-2020 22:53:10,18-Jul-2020 14:53:10,33.25222,-118.24910,090.0 035.0,090.0,035.0,23.000,23.165,,16.9445,,16.8610,,16.9028,33.5483,,33.5485,33.5505,,33.5521,33.5503,5.7423,,5.9824,6.1079,4.4027,,6.5694,4.9898,5.5489,250.338,260.8397,211.1166,191.935,446.7462,191.8481,201.4824,0.1602,,1.4615,0.9871,0.0162,,0.0000,,24.4142,,24.4354,,0.7877,82.1263,,8.169,,2.1804E+03,,4.6474E+00,,16.9407,16.8573,0.0977,,103.865,79.507,,,,,,,,,,,,
CalCOFI,2007SR,028,29,2007_028d,18-Jul-2020 22:53:12,18-Jul-2020 14:53:12,33.25222,-118.24910,090.0 035.0,090.0,035.0,24.000,24.172,,16.6685,,16.6194,,16.6440,33.5458,,33.5460,33.5472,,33.5488,33.5474,5.7545,,5.9952,6.1212,4.4319,,6.6391,5.0585,5.5899,250.855,261.3794,211.4968,193.196,448.0107,194.3567,202.9268,0.1502,,1.3434,0.8658,0.0036,,0.0000,,24.4767,,24.4892,,0.7824,82.2341,,8.166,,2.1800E+03,,4.1104E+00,,16.6646,16.6156,0.1012,,103.529,79.659,,,,,,,,,,,,
CalCOFI,2007SR,028,29,2007_028d,18-Jul-2020 22:53:13,18-Jul-2020 14:53:13,33.25222,-118.24910,090.0 035.0,090.0,035.0,25.000,25.180,,16.1459,,16.0683,,16.1071,33.5285,,33.5287,33.5289,,33.5305,33.5296,5.8162,,6.0596,6.1887,4.4764,,6.7453,5.1633,5.6760,253.520,264.1614,213.4568,195.116,454.5289,198.1762,205.8165,0.1680,,1.5537,1.0875,0.0001,,0.0000,,24.5834,,24.6014,,0.7865,82.1496,,8.162,,2.1796E+03,,3.6529E+00,,16.1420,16.0644,0.1047,,103.569,79.590,,,,,,,,,,,,
CalCOFI,2007SR,028,29,2007_028d,18-Jul-2020 22:53:16,18-Jul-2020 14:53:16,33.25222,-118.24910,090.0 035.0,090.0,035.0,26.000,26.187,,15.8359,,15.8168,,15.8264,33.5381,,33.5383,33.5419,,33.5435,33.5409,5.7612,,6.0022,6.1285,4.5030,,6.8088,5.2259,5.6772,251.102,261.6373,211.6785,196.260,448.6148,200.4521,206.0653,0.1857,,1.7629,1.3339,-99.0,,-99.0,,24.6612,,24.6684,,0.7932,82.0136,,8.156,,2.1799E+03,,3.2796E+00,,15.8318,15.8127,0.1080,,101.975,79.675,,,,,,,,,,,,
CalCOFI,2007SR,028,29,2007_028d,18-Jul-2020 22:53:18,18-Jul-2020 14:53:18,33.25222,-118.24910,090.0 035.0,090.0,035.0,27.000,27.194,,15.7443,,15.7231,,15.7337,33.5371,,33.5373,33.5385,,33.5401,33.5387,5.5625,,5.7946,5.9111,4.5261,,6.8640,5.2802,5.5957,242.439,252.5940,205.3073,197.264,427.4264,202.4494,203.8784,0.1758,,1.6459,1.1929,-99.0,,-99.0,,24.6810,,24.6868,,0.7874,82.1314,,8.151,,2.1791E+03,,3.0422E+00,,15.7401,15.7189,0.1113,,98.281,79.934,,,,,,,,,,,,
CalCOFI,2007SR,028,29,2007_028d,18-Jul-2020 22:53:20,18-Jul-2020 14:53:20,33.25222,-118.24910,090.0 035.0,090.0,035.0,28.000,28.201,,15.3926,,15.3671,,15.3799,33.5266,,33.5268,33.5293,,33.5309,33.5289,5.4762,,5.7044,5.8167,4.5575,,6.9389,5.3541,5.5854,238.661,248.6501,202.5288,198.621,418.1859,205.1489,203.8389,0.2337,,2.3315,2.1321,-99.0,,-99.0,,24.7511,,24.7588,,0.7895,82.0884,,8.145,,2.1804E+03,,2.7989E+00,,15.3883,15.3628,0.1145,,96.080,79.922,,,,,,,,,,,,
CalCOFI,2007SR,028,29,2007_028d,18-Jul-2020 22:53:21,18-Jul-2020 14:53:21,33.25222,-118.24910,090.0 035.0,090.0,035.0,29.000,29.209,,14.9870,,14.9640,,14.9755,33.5263,,33.5265,33.5280,,33.5296,33.5281,5.5012,,5.7305,5.8441,4.5832,,7.0003,5.4146,5.6294,239.728,249.7640,203.3135,199.724,420.7957,207.3432,205.3284,0.1615,,1.4768,1.0035,-99.0,,-99.0,,24.8396,,24.8459,,0.7641,82.6116,,8.135,,2.1788E+03,,2.5354E+00,,14.9827,14.9597,0.1177,,95.742,79.730,,,,,,,,,,,,
CalCOFI,2007SR,028,29,2007_028d,18-Jul-2020 22:53:23,18-Jul-2020 14:53:23,33.25222,-118.24910,090.0 035.0,090.0,035.0,30.000,30.216,,14.8105,,14.8065,,14.8085,33.5323,,33.5325,33.5369,,33.5385,33.5355,5.5074,,5.7370,5.8509,4.5880,,7.0117,5.4259,5.6384,239.990,250.0375,203.5062,199.927,421.4365,207.7470,205.6266,0.1531,,1.3776,0.9001,-99.0,,-99.0,,24.8825,,24.8869,,0.7519,82.8632,,8.124,,2.1788E+03,,2.2361E+00,,14.8061,14.8020,0.1208,,95.517,79.568,,,,,,,,,,,,
CalCOFI,2007SR,028,29,2007_028d,18-Jul-2020 22:53:26,18-Jul-2020 14:53:26,33.25222,-118.24910,090.0 035.0,090.0,035.0,31.000,31.223,,14.7282,,14.7331,,14.7307,33.5366,,33.5368,33.5405,,33.5421,33.5395,5.4772,,5.7054,5.8178,4.5759,,6.9828,5.3974,5.6076,238.669,248.6585,202.5347,199.394,418.2055,206.6867,204.6107,0.1476,,1.3127,0.8356,-99.0,,-99.0,,24.9036,,24.9055,,0.7412,83.0860,,8.115,,2.1794E+03,,1.9659E+00,,14.7236,14.7285,0.1239,,94.840,79.243,31,14.291,33.5533,,239.51,0.845,0.406,3.03,0.091,0.40,0.51,3.80
CalCOFI,2007SR,028,29,2007_028d,18-Jul-2020 22:53:28,18-Jul-2020 14:53:28,33.25222,-118.24910,090.0 035.0,090.0,035.0,32.000,32.230,,14.6623,,14.6653,,14.6638,33.5393,,33.5395,33.5429,,33.5445,33.5420,5.4244,,5.6503,5.7601,4.5670,,6.9616,5.3765,5.5683,236.363,246.2512,200.8387,199.002,412.5653,205.9068,203.3728,0.1350,,1.1639,0.6972,-99.0,,-99.0,,24.9197,,24.9218,,0.7302,83.3147,,8.110,,2.1787E+03,,1.7642E+00,,14.6576,14.6606,0.1270,,93.803,78.982,,,,,,,,,,,,
CalCOFI,2007SR,028,29,2007_028d,18-Jul-2020 22:53:30,18-Jul-2020 14:53:30,33.25222,-118.24910,090.0 035.0,090.0,035.0,33.000,33.238,,14.6306,,14.6307,,14.6307,33.5406,,33.5408,33.5438,,33.5454,33.5431,5.3606,,5.5836,5.6902,4.5593,,6.9432,5.3584,5.5243,233.581,243.3471,198.7928,198.664,405.7610,205.2345,202.0137,0.1381,,1.2005,0.7300,-99.0,,-99.0,,24.9275,,24.9300,,0.7340,83.2351,,8.105,,2.1798E+03,,1.6155E+00,,14.6258,14.6259,0.1300,,92.641,78.794,,,,,,,,,,,,
CalCOFI,2007SR,028,29,2007_028d,18-Jul-2020 22:53:32,18-Jul-2020 14:53:32,33.25222,-118.24912,090.0 035.0,090.0,035.0,34.000,34.245,,14.5120,,14.4957,,14.5039,33.5393,,33.5395,33.5398,,33.5414,33.5405,5.2852,,5.5048,5.6078,4.5643,,6.9552,5.3701,5.4890,230.291,239.9127,196.3731,198.879,397.7141,205.6622,201.0177,0.1372,,1.1899,0.7204,-99.0,,-99.0,,24.9519,,24.9557,,0.7276,83.3695,,8.101,,2.1788E+03,,1.3892E+00,,14.5070,14.4908,0.1331,,91.121,78.666,,,,,,,,,,,,
CalCOFI,2007SR,028,29,2007_028d,18-Jul-2020 22:53:34,18-Jul-2020 14:53:34,33.25222,-118.24912,090.0 035.0,090.0,035.0,35.000,35.252,,14.3793,,14.3542,,14.3668,33.5386,,33.5388,33.5405,,33.5421,33.5405,5.1542,,5.3679,5.4644,4.5753,,6.9814,5.3960,5.4302,224.575,233.9457,192.1693,199.352,383.7336,206.6031,199.3862,0.1365,,1.1816,0.7130,-99.0,,-99.0,,24.9794,,24.9862,,0.7259,83.4048,,8.092,,2.1791E+03,,1.2773E+00,,14.3743,14.3491,0.1361,,88.624,78.631,,,,,,,,,,,,
CalCOFI,2007SR,028,29,2007_028d,18-Jul-2020 22:53:36,18-Jul-2020 14:53:36,33.25222,-118.24912,090.0 035.0,090.0,035.0,36.000,36.260,,14.0823,,14.0402,,14.0613,33.5351,,33.5353,33.5372,,33.5388,33.5371,5.0700,,5.2799,5.3723,4.5862,,7.0074,5.4217,5.3970,220.894,230.1031,189.4622,199.816,374.7304,207.5262,198.4942,0.1368,,1.1852,0.7161,-99.0,,-99.0,,25.0390,,25.0495,,0.7225,83.4755,,8.081,,2.1793E+03,,1.1048E+00,,14.0772,14.0350,0.1390,,86.653,78.319,,,,,,,,,,,,
CalCOFI,2007SR,028,29,2007_028d,18-Jul-2020 22:53:38,18-Jul-2020 14:53:38,33.25222,-118.24912,090.0 035.0,090.0,035.0,37.000,37.267,,13.9323,,13.9128,,13.9226,33.5394,,33.5396,33.5415,,33.5431,33.5414,4.9854,,5.1915,5.2797,4.5842,,7.0027,5.4170,5.3484,217.201,226.2480,186.7462,199.723,365.6978,207.3412,197.0437,0.1285,,1.0873,0.6309,-99.0,,-99.0,,25.0736,,25.0793,,0.7186,83.5561,,8.072,,2.1786E+03,,9.9864E-01,,13.9271,13.9076,0.1420,,84.950,78.085,,,,,,,,,,,,
CalCOFI,2007SR,028,29,2007_028d,18-Jul-2020 22:53:40,18-Jul-2020 14:53:40,33.25222,-118.24912,090.0 035.0,090.0,035.0,38.000,38.274,,13.7797,,13.7542,,13.7670,33.5392,,33.5394,33.5420,,33.5436,33.5415,4.9187,,5.1218,5.2068,4.5846,,7.0036,5.4179,5.3124,214.288,223.2071,184.6038,199.731,358.5730,207.3571,195.9805,0.1250,,1.0460,0.5966,-99.0,,-99.0,,25.1049,,25.1124,,0.7142,83.6492,,8.063,,2.1790E+03,,9.0531E-01,,13.7744,13.7488,0.1449,,83.554,77.839,,,,,,,,,,,,
CalCOFI,2007SR,028,29,2007_028d,18-Jul-2020 22:53:42,18-Jul-2020 14:53:42,33.25222,-118.24912,090.0 035.0,090.0,035.0,39.000,39.281,,13.6560,,13.6422,,13.6491,33.5404,,33.5406,33.5435,,33.5451,33.5429,4.8019,,4.9998,5.0790,4.5843,,7.0029,5.4172,5.2481,209.196,217.8916,180.8590,199.715,346.1187,207.3253,194.0922,0.1296,,1.1002,0.6419,-99.0,,-99.0,,25.1313,,25.1365,,0.7128,83.6769,,8.054,,2.1778E+03,,8.2353E-01,,13.6505,13.6368,0.1477,,81.366,77.658,,,,,,,,,,,,
CalCOFI,2007SR,028,29,2007_028d,18-Jul-2020 22:53:44,18-Jul-2020 14:53:44,33.25222,-118.24912,090.0 035.0,090.0,035.0,40.000,40.289,,13.4547,,13.4412,,13.4480,33.5374,,33.5376,33.5396,,33.5412,33.5394,4.7118,,4.9057,4.9804,4.5802,,6.9931,5.4075,5.1940,205.261,213.7839,177.9650,199.528,336.4943,206.9532,192.4591,0.1317,,1.1250,0.6631,-99.0,,-99.0,,25.1699,,25.1744,,0.7093,83.7500,,8.042,,2.1777E+03,,7.6646E-01,,13.4492,13.4357,0.1506,,79.509,77.268,,,,,,,,,,,,
CalCOFI,2007SR,028,29,2007_028d,18-Jul-2020 22:53:46,18-Jul-2020 14:53:46,33.25222,-118.24912,090.0 035.0,090.0,035.0,41.000,41.296,,13.2735,,13.2605,,13.2670,33.5415,,33.5417,33.5448,,33.5464,33.5441,4.5925,,4.7810,4.8499,4.5799,,6.9924,5.4068,5.1284,200.058,208.3524,174.1385,199.507,323.7685,206.9115,190.5250,0.1360,,1.1757,0.7077,-99.0,,-99.0,,25.2097,,25.2148,,0.7077,83.7847,,8.031,,2.1783E+03,,6.9250E-01,,13.2678,13.2548,0.1534,,77.211,76.980,41,12.502,33.5487,,197.91,0.566,0.272,9.04,0.082,0.11,0.88,7.80
CalCOFI,2007SR,028,29,2007_028d,18-Jul-2020 22:53:48,18-Jul-2020 14:53:48,33.25222,-118.24912,090.0 035.0,090.0,035.0,42.000,42.303,,13.1671,,13.1391,,13.1531,33.5398,,33.5400,33.5410,,33.5426,33.5413,4.4416,,4.6233,4.6848,4.5822,,6.9979,5.4122,5.0485,193.478,201.4836,169.2993,199.602,307.6747,207.1005,188.1999,0.1314,,1.1215,0.6600,-99.0,,-99.0,,25.2296,,25.2362,,0.7058,83.8233,,8.022,,2.1781E+03,,6.5479E-01,,13.1614,13.1333,0.1561,,74.510,76.824,,,,,,,,,,,,
CalCOFI,2007SR,028,29,2007_028d,18-Jul-2020 22:53:50,18-Jul-2020 14:53:50,33.25222,-118.24912,090.0 035.0,090.0,035.0,43.000,43.311,,12.8772,,12.8503,,12.8638,33.5334,,33.5336,33.5354,,33.5370,33.5353,4.3189,,4.4951,4.5505,4.5952,,7.0289,5.4428,4.9967,188.127,195.8977,165.3639,200.160,294.5870,208.2105,186.7872,0.1174,,0.9564,0.5257,8.9025E-09,,0.0000,,25.2822,,25.2890,,0.7021,83.9011,,8.010,,2.1776E+03,,6.0561E-01,,12.8714,12.8445,0.1589,,72.019,76.582,,,,,,,,,,,,
CalCOFI,2007SR,028,29,2007_028d,18-Jul-2020 22:53:52,18-Jul-2020 14:53:52,33.25222,-118.24912,090.0 035.0,090.0,035.0,44.000,44.318,,12.5494,,12.5324,,12.5409,33.5278,,33.5280,33.5300,,33.5316,33.5298,4.2180,,4.3897,4.4401,4.5999,,7.0401,5.4539,4.9470,183.720,191.2972,162.1228,200.354,283.8081,208.5965,185.3597,0.1068,,0.8315,0.4348,0.0033,,0.0000,,25.3419,,25.3469,,0.6942,84.0678,,7.995,,2.1783E+03,,5.7224E-01,,12.5436,12.5266,0.1616,,69.856,76.155,,,,,,,,,,,,
CalCOFI,2007SR,028,29,2007_028d,18-Jul-2020 22:53:54,18-Jul-2020 14:53:54,33.25222,-118.24912,090.0 035.0,090.0,035.0,45.000,45.325,,12.2889,,12.2721,,12.2805,33.5341,,33.5343,33.5366,,33.5382,33.5363,4.1495,,4.3181,4.3652,4.5890,,7.0141,5.4282,4.8967,180.727,188.1728,159.9216,199.868,276.4876,207.6296,183.7756,0.0997,,0.7478,0.3791,0.0199,,0.0000,,25.3969,,25.4021,,0.6884,84.1889,,7.982,,2.1785E+03,,5.3425E-01,,12.2831,12.2662,0.1642,,68.352,75.566,,,,,,,,,,,,
CalCOFI,2007SR,028,29,2007_028d,18-Jul-2020 22:53:56,18-Jul-2020 14:53:56,33.25222,-118.24912,090.0 035.0,090.0,035.0,46.000,46.333,,12.1429,,12.1196,,12.1313,33.5432,,33.5434,33.5468,,33.5484,33.5459,4.0954,,4.2616,4.3060,4.5718,,6.9731,5.3878,4.8469,178.363,185.7050,158.1830,199.111,270.7056,206.1237,182.1534,0.0992,,0.7419,0.3753,0.0446,,0.0000,,25.4318,,25.4391,,0.6801,84.3648,,7.971,,2.1777E+03,,5.0193E-01,,12.1370,12.1137,0.1668,,67.258,75.047,,,,,,,,,,,,
CalCOFI,2007SR,028,29,2007_028d,18-Jul-2020 22:53:58,18-Jul-2020 14:53:58,33.25222,-118.24912,090.0 035.0,090.0,035.0,47.000,47.340,,12.0588,,12.0429,,12.0509,33.5505,,33.5507,33.5553,,33.5569,33.5538,4.0343,,4.1977,4.2391,4.5489,,6.9184,5.3339,4.7865,175.699,182.9241,156.2238,198.110,264.1898,204.1324,180.1781,0.0857,,0.5830,0.2814,0.0775,,0.0000,,25.4534,,25.4601,,0.6766,84.4384,,7.960,,2.1772E+03,,4.7774E-01,,12.0528,12.0369,0.1693,,66.142,74.556,,,,,,,,,,,,
CalCOFI,2007SR,028,29,2007_028d,18-Jul-2020 22:54:00,18-Jul-2020 14:54:00,33.25222,-118.24912,090.0 035.0,090.0,035.0,48.000,48.348,,11.9598,,11.9480,,11.9539,33.5652,,33.5654,33.5698,,33.5714,33.5684,3.9714,,4.1320,4.1703,4.5212,,6.8523,5.2687,4.7195,172.956,180.0607,154.2065,196.897,257.4808,201.7193,177.9629,0.0782,,0.4947,0.2357,0.1168,,0.0000,,25.4835,,25.4893,,0.6718,84.5386,,7.949,,2.1788E+03,,4.4777E-01,,11.9537,11.9419,0.1719,,64.981,73.960,,,,,,,,,,,,
CalCOFI,2007SR,028,29,2007_028d,18-Jul-2020 22:54:02,18-Jul-2020 14:54:02,33.25222,-118.24912,090.0 035.0,090.0,035.0,49.000,49.355,,11.8849,,11.8745,,11.8797,33.5754,,33.5756,33.5799,,33.5815,33.5786,3.8735,,4.0297,4.0632,4.4936,,6.7864,5.2037,4.6335,168.687,175.6043,151.0669,195.692,247.0395,199.3221,175.1945,0.0869,,0.5971,0.2891,0.1490,,0.0000,,25.5056,,25.5110,,0.6771,84.4270,,7.939,,2.1784E+03,,4.0704E-01,,11.8787,11.8682,0.1744,,63.284,73.400,,,,,,,,,,,,
CalCOFI,2007SR,028,29,2007_028d,18-Jul-2020 22:54:04,18-Jul-2020 14:54:04,33.25222,-118.24912,090.0 035.0,090.0,035.0,50.000,50.362,,11.8071,,11.7951,,11.8011,33.5892,,33.5894,33.5936,,33.5952,33.5923,3.7128,,3.8618,3.8874,4.4622,,6.7114,5.1299,4.5087,161.686,168.2959,145.9180,194.318,229.9160,196.5887,171.2534,0.0876,,0.6054,0.2937,0.1660,,0.0000,,25.5308,,25.5364,,0.6814,84.3369,,7.929,,2.1785E+03,,3.5398E-01,,11.8007,11.7888,0.1769,,60.564,72.772,,,,,,,,,,,,